GFSMW_prec_pwat_024.txt.gz
Precipitable_Water
0.66 0.78 0.82 0.84 0.85 0.84 0.87 0.93 0.93 0.94 0.93 0.89 0.83 0.82 0.82 0.85 0.85 0.87 0.91 0.91 0.90 0.90 0.83 0.80 0.79 0.82 0.77 0.75 0.74 0.72 0.64 0.61 0.64 0.59 0.58 0.58 0.64 0.70 0.67 0.68 0.68 0.64 0.64
0.62 0.70 0.78 0.81 0.76 0.71 0.72 0.76 0.79 0.81 0.82 0.83 0.83 0.84 0.83 0.84 0.84 0.85 0.89 0.88 0.91 0.89 0.84 0.80 0.77 0.73 0.69 0.66 0.62 0.56 0.55 0.58 0.62 0.58 0.56 0.47 0.52 0.59 0.63 0.68 0.73 0.74 0.71
0.56 0.63 0.69 0.71 0.70 0.70 0.72 0.75 0.78 0.81 0.84 0.81 0.83 0.82 0.80 0.80 0.79 0.82 0.84 0.89 0.92 0.87 0.80 0.74 0.68 0.62 0.60 0.56 0.54 0.53 0.52 0.53 0.59 0.64 0.60 0.49 0.43 0.52 0.56 0.59 0.71 0.76 0.83
0.56 0.61 0.64 0.66 0.69 0.72 0.77 0.79 0.80 0.82 0.82 0.82 0.79 0.77 0.77 0.75 0.81 0.83 0.83 0.80 0.76 0.70 0.65 0.62 0.58 0.56 0.58 0.57 0.56 0.63 0.64 0.63 0.56 0.59 0.59 0.57 0.58 0.49 0.41 0.51 0.53 0.66 0.74
0.62 0.63 0.67 0.70 0.75 0.79 0.80 0.82 0.82 0.80 0.80 0.81 0.83 0.81 0.76 0.74 0.71 0.69 0.67 0.66 0.67 0.65 0.62 0.58 0.57 0.57 0.59 0.59 0.66 0.65 0.63 0.61 0.56 0.51 0.49 0.46 0.46 0.53 0.48 0.38 0.42 0.50 0.54
0.62 0.64 0.68 0.74 0.77 0.82 0.81 0.80 0.76 0.76 0.80 0.78 0.74 0.70 0.68 0.68 0.67 0.67 0.66 0.66 0.64 0.61 0.56 0.53 0.53 0.53 0.59 0.63 0.64 0.61 0.58 0.53 0.52 0.50 0.49 0.45 0.41 0.40 0.42 0.40 0.38 0.38 0.43
0.60 0.63 0.66 0.70 0.74 0.76 0.76 0.76 0.76 0.75 0.76 0.75 0.76 0.77 0.76 0.74 0.69 0.67 0.64 0.60 0.56 0.51 0.49 0.50 0.53 0.57 0.59 0.58 0.56 0.52 0.51 0.50 0.46 0.45 0.43 0.44 0.43 0.43 0.42 0.41 0.39 0.36 0.39
0.61 0.64 0.65 0.67 0.69 0.72 0.74 0.74 0.75 0.73 0.73 0.74 0.75 0.76 0.74 0.70 0.68 0.64 0.60 0.55 0.48 0.46 0.47 0.54 0.54 0.53 0.53 0.52 0.51 0.52 0.51 0.51 0.50 0.48 0.46 0.45 0.46 0.46 0.44 0.40 0.37 0.33 0.33
0.61 0.63 0.67 0.67 0.69 0.70 0.70 0.71 0.73 0.71 0.69 0.69 0.68 0.66 0.67 0.64 0.60 0.56 0.52 0.45 0.42 0.41 0.45 0.44 0.46 0.48 0.50 0.50 0.54 0.49 0.47 0.48 0.50 0.50 0.50 0.50 0.50 0.49 0.46 0.44 0.41 0.36 0.29
0.61 0.63 0.64 0.66 0.69 0.71 0.73 0.73 0.69 0.66 0.66 0.66 0.64 0.61 0.59 0.56 0.52 0.47 0.41 0.41 0.41 0.40 0.41 0.44 0.45 0.48 0.51 0.51 0.49 0.47 0.48 0.46 0.46 0.49 0.49 0.49 0.49 0.50 0.52 0.49 0.46 0.43 0.37
0.59 0.62 0.65 0.67 0.69 0.69 0.68 0.68 0.66 0.64 0.62 0.60 0.58 0.53 0.48 0.46 0.48 0.45 0.44 0.44 0.43 0.40 0.41 0.45 0.48 0.49 0.50 0.50 0.48 0.45 0.44 0.40 0.39 0.42 0.44 0.44 0.45 0.44 0.45 0.44 0.40 0.38 0.36
0.62 0.64 0.64 0.65 0.65 0.65 0.64 0.64 0.62 0.60 0.60 0.58 0.50 0.45 0.44 0.46 0.44 0.43 0.39 0.39 0.40 0.41 0.42 0.43 0.45 0.45 0.45 0.46 0.45 0.41 0.37 0.34 0.31 0.29 0.30 0.32 0.34 0.33 0.34 0.33 0.32 0.30 0.31
0.63 0.61 0.61 0.63 0.62 0.60 0.59 0.57 0.57 0.58 0.56 0.49 0.45 0.39 0.39 0.42 0.39 0.36 0.37 0.38 0.36 0.36 0.36 0.36 0.34 0.33 0.33 0.32 0.30 0.28 0.27 0.26 0.24 0.22 0.23 0.24 0.25 0.26 0.27 0.27 0.28 0.29 0.29
0.57 0.58 0.59 0.60 0.58 0.56 0.53 0.51 0.53 0.54 0.50 0.43 0.39 0.39 0.40 0.41 0.39 0.36 0.36 0.38 0.37 0.35 0.32 0.31 0.30 0.29 0.27 0.26 0.25 0.26 0.25 0.24 0.23 0.20 0.20 0.21 0.22 0.23 0.24 0.25 0.26 0.26 0.25
0.57 0.57 0.59 0.57 0.54 0.49 0.47 0.48 0.51 0.48 0.44 0.40 0.39 0.39 0.39 0.41 0.40 0.37 0.37 0.37 0.35 0.31 0.30 0.29 0.28 0.26 0.25 0.26 0.26 0.25 0.25 0.24 0.21 0.20 0.21 0.22 0.24 0.25 0.26 0.24 0.23 0.22 0.20
0.56 0.58 0.57 0.53 0.48 0.47 0.46 0.48 0.49 0.43 0.43 0.41 0.38 0.38 0.40 0.42 0.41 0.36 0.34 0.33 0.28 0.29 0.29 0.27 0.25 0.25 0.26 0.27 0.25 0.24 0.24 0.25 0.24 0.22 0.22 0.25 0.26 0.26 0.28 0.28 0.27 0.25 0.22
0.57 0.56 0.53 0.51 0.47 0.44 0.42 0.39 0.44 0.46 0.43 0.43 0.39 0.41 0.43 0.39 0.35 0.33 0.32 0.28 0.28 0.29 0.27 0.25 0.25 0.26 0.27 0.27 0.27 0.27 0.27 0.26 0.24 0.23 0.23 0.24 0.25 0.26 0.27 0.27 0.27 0.28 0.28
0.54 0.53 0.50 0.46 0.43 0.39 0.36 0.39 0.41 0.41 0.40 0.40 0.42 0.37 0.42 0.41 0.35 0.33 0.32 0.28 0.30 0.29 0.27 0.26 0.26 0.26 0.26 0.28 0.28 0.28 0.27 0.25 0.24 0.24 0.23 0.22 0.23 0.24 0.24 0.24 0.24 0.24 0.25
0.51 0.47 0.45 0.44 0.41 0.41 0.42 0.37 0.34 0.33 0.33 0.35 0.41 0.46 0.45 0.41 0.38 0.33 0.33 0.31 0.30 0.29 0.29 0.27 0.28 0.27 0.27 0.27 0.29 0.30 0.27 0.25 0.24 0.23 0.24 0.25 0.24 0.24 0.25 0.25 0.24 0.24 0.24
0.43 0.40 0.40 0.40 0.42 0.40 0.38 0.34 0.30 0.29 0.31 0.36 0.42 0.42 0.40 0.39 0.38 0.37 0.38 0.33 0.32 0.31 0.28 0.27 0.27 0.28 0.26 0.29 0.29 0.28 0.28 0.26 0.25 0.24 0.25 0.26 0.26 0.28 0.27 0.26 0.25 0.23 0.24
0.37 0.34 0.33 0.32 0.33 0.33 0.31 0.28 0.27 0.26 0.28 0.32 0.36 0.39 0.40 0.41 0.44 0.43 0.37 0.33 0.33 0.28 0.27 0.25 0.27 0.26 0.27 0.27 0.27 0.29 0.28 0.25 0.23 0.23 0.24 0.26 0.27 0.28 0.27 0.26 0.25 0.24 0.28
0.29 0.27 0.25 0.25 0.27 0.28 0.28 0.27 0.26 0.27 0.28 0.31 0.31 0.32 0.38 0.42 0.41 0.36 0.35 0.34 0.26 0.24 0.24 0.24 0.23 0.25 0.26 0.26 0.28 0.29 0.26 0.24 0.24 0.24 0.25 0.27 0.26 0.28 0.28 0.28 0.29 0.29 0.29
0.26 0.25 0.24 0.24 0.25 0.27 0.29 0.29 0.30 0.30 0.31 0.31 0.32 0.34 0.39 0.41 0.41 0.40 0.35 0.25 0.23 0.23 0.23 0.22 0.22 0.22 0.22 0.24 0.25 0.23 0.22 0.24 0.25 0.26 0.27 0.27 0.28 0.28 0.28 0.29 0.30 0.30 0.29
0.25 0.26 0.24 0.25 0.27 0.28 0.30 0.31 0.33 0.33 0.32 0.32 0.32 0.34 0.34 0.35 0.37 0.34 0.26 0.23 0.23 0.23 0.22 0.22 0.21 0.19 0.20 0.20 0.21 0.22 0.25 0.25 0.26 0.26 0.27 0.28 0.27 0.28 0.28 0.29 0.30 0.30 0.30
0.26 0.25 0.26 0.25 0.25 0.26 0.29 0.32 0.33 0.33 0.33 0.33 0.33 0.32 0.34 0.35 0.31 0.27 0.24 0.23 0.25 0.25 0.23 0.22 0.21 0.19 0.18 0.19 0.22 0.24 0.24 0.25 0.26 0.26 0.27 0.25 0.25 0.25 0.26 0.26 0.27 0.29 0.28
0.22 0.23 0.25 0.25 0.26 0.28 0.30 0.31 0.33 0.34 0.34 0.32 0.32 0.31 0.28 0.26 0.25 0.22 0.22 0.26 0.26 0.27 0.26 0.25 0.23 0.22 0.21 0.21 0.23 0.24 0.24 0.26 0.26 0.25 0.24 0.23 0.23 0.24 0.24 0.25 0.25 0.27 0.27

GFSMW_prec_pwat_027.txt.gz
Precipitable_Water
0.69 0.78 0.84 0.88 0.94 1.00 0.98 0.94 0.84 0.79 0.82 0.82 0.80 0.79 0.82 0.86 0.86 0.90 0.89 0.88 0.88 0.87 0.87 0.85 0.84 0.79 0.72 0.66 0.63 0.59 0.54 0.52 0.55 0.52 0.50 0.54 0.60 0.60 0.62 0.65 0.71 0.76 0.78
0.67 0.75 0.81 0.86 0.90 0.88 0.83 0.82 0.81 0.81 0.79 0.79 0.81 0.83 0.82 0.80 0.84 0.86 0.88 0.89 0.87 0.86 0.83 0.80 0.74 0.70 0.63 0.61 0.59 0.55 0.51 0.51 0.57 0.49 0.48 0.40 0.45 0.54 0.58 0.60 0.65 0.74 0.81
0.61 0.67 0.69 0.72 0.73 0.72 0.74 0.74 0.73 0.76 0.77 0.78 0.80 0.79 0.76 0.76 0.77 0.81 0.83 0.85 0.84 0.80 0.74 0.69 0.65 0.61 0.61 0.56 0.55 0.56 0.53 0.50 0.58 0.63 0.58 0.48 0.44 0.50 0.55 0.54 0.57 0.58 0.62
0.61 0.66 0.67 0.68 0.69 0.71 0.75 0.75 0.76 0.77 0.80 0.81 0.77 0.74 0.71 0.69 0.72 0.72 0.72 0.70 0.69 0.66 0.65 0.62 0.60 0.58 0.54 0.51 0.53 0.55 0.55 0.56 0.51 0.55 0.57 0.56 0.53 0.40 0.34 0.47 0.53 0.58 0.54
0.61 0.62 0.64 0.68 0.73 0.76 0.76 0.76 0.79 0.80 0.78 0.76 0.74 0.71 0.67 0.68 0.69 0.70 0.68 0.67 0.66 0.65 0.63 0.59 0.51 0.46 0.49 0.52 0.54 0.54 0.52 0.51 0.47 0.44 0.44 0.40 0.41 0.44 0.39 0.31 0.37 0.43 0.46
0.63 0.62 0.66 0.71 0.72 0.77 0.78 0.78 0.75 0.75 0.78 0.77 0.76 0.75 0.71 0.69 0.67 0.65 0.63 0.62 0.62 0.59 0.54 0.45 0.49 0.49 0.48 0.48 0.48 0.49 0.47 0.46 0.45 0.42 0.41 0.37 0.34 0.33 0.33 0.31 0.30 0.33 0.38
0.60 0.61 0.64 0.69 0.72 0.71 0.73 0.76 0.75 0.73 0.76 0.75 0.72 0.71 0.70 0.69 0.67 0.64 0.60 0.57 0.53 0.46 0.39 0.43 0.44 0.46 0.46 0.46 0.45 0.47 0.49 0.47 0.46 0.46 0.43 0.44 0.43 0.42 0.40 0.36 0.31 0.29 0.32
0.65 0.64 0.63 0.66 0.70 0.72 0.74 0.74 0.74 0.72 0.71 0.70 0.67 0.67 0.67 0.65 0.63 0.60 0.57 0.51 0.42 0.38 0.41 0.42 0.43 0.42 0.43 0.45 0.47 0.47 0.50 0.51 0.46 0.45 0.46 0.46 0.47 0.48 0.46 0.42 0.37 0.29 0.30
0.64 0.64 0.66 0.66 0.68 0.70 0.73 0.72 0.70 0.69 0.69 0.67 0.65 0.65 0.63 0.60 0.57 0.54 0.50 0.41 0.40 0.41 0.42 0.42 0.41 0.44 0.46 0.47 0.45 0.48 0.47 0.48 0.45 0.45 0.46 0.47 0.48 0.49 0.50 0.49 0.47 0.38 0.27
0.64 0.66 0.67 0.68 0.70 0.70 0.68 0.67 0.66 0.64 0.64 0.63 0.62 0.60 0.57 0.56 0.52 0.45 0.41 0.43 0.44 0.43 0.40 0.40 0.41 0.44 0.46 0.47 0.46 0.44 0.43 0.42 0.41 0.40 0.39 0.39 0.41 0.43 0.46 0.46 0.46 0.45 0.38
0.65 0.66 0.68 0.68 0.67 0.67 0.65 0.64 0.63 0.61 0.60 0.59 0.58 0.56 0.53 0.47 0.43 0.42 0.43 0.42 0.36 0.36 0.38 0.38 0.39 0.39 0.38 0.40 0.41 0.41 0.39 0.38 0.37 0.36 0.34 0.29 0.29 0.31 0.36 0.40 0.40 0.37 0.36
0.65 0.66 0.65 0.65 0.62 0.62 0.63 0.62 0.59 0.57 0.56 0.54 0.51 0.47 0.44 0.40 0.38 0.37 0.37 0.37 0.36 0.38 0.36 0.35 0.32 0.34 0.34 0.33 0.33 0.31 0.30 0.26 0.25 0.26 0.26 0.23 0.20 0.21 0.24 0.25 0.26 0.28 0.30
0.64 0.63 0.63 0.63 0.61 0.60 0.58 0.57 0.54 0.52 0.51 0.48 0.44 0.43 0.39 0.38 0.36 0.35 0.37 0.39 0.38 0.33 0.31 0.30 0.29 0.29 0.29 0.28 0.27 0.26 0.25 0.26 0.27 0.26 0.25 0.23 0.20 0.17 0.19 0.21 0.21 0.22 0.24
0.62 0.63 0.62 0.60 0.57 0.56 0.54 0.50 0.50 0.50 0.49 0.46 0.41 0.40 0.41 0.41 0.41 0.41 0.43 0.43 0.37 0.32 0.29 0.27 0.28 0.27 0.25 0.25 0.25 0.25 0.25 0.25 0.25 0.25 0.24 0.23 0.22 0.21 0.22 0.24 0.24 0.23 0.22
0.60 0.59 0.56 0.54 0.52 0.50 0.48 0.46 0.46 0.43 0.43 0.41 0.41 0.42 0.42 0.42 0.44 0.45 0.45 0.45 0.38 0.32 0.29 0.27 0.28 0.27 0.25 0.24 0.24 0.24 0.25 0.25 0.25 0.25 0.25 0.24 0.25 0.26 0.27 0.28 0.27 0.26 0.24
0.55 0.52 0.51 0.49 0.48 0.45 0.42 0.39 0.38 0.41 0.44 0.43 0.42 0.42 0.43 0.45 0.47 0.49 0.45 0.45 0.37 0.31 0.30 0.28 0.27 0.27 0.26 0.26 0.27 0.27 0.25 0.25 0.24 0.23 0.22 0.23 0.25 0.25 0.26 0.27 0.27 0.27 0.26
0.50 0.48 0.46 0.47 0.44 0.42 0.41 0.39 0.39 0.40 0.38 0.37 0.40 0.42 0.42 0.43 0.46 0.48 0.49 0.42 0.36 0.32 0.31 0.28 0.30 0.29 0.28 0.29 0.29 0.27 0.26 0.25 0.26 0.24 0.23 0.21 0.21 0.23 0.23 0.24 0.25 0.26 0.27
0.46 0.44 0.43 0.41 0.40 0.41 0.39 0.38 0.36 0.34 0.33 0.35 0.32 0.33 0.38 0.41 0.46 0.47 0.43 0.41 0.35 0.33 0.30 0.31 0.31 0.30 0.29 0.30 0.28 0.28 0.28 0.27 0.27 0.27 0.26 0.24 0.23 0.25 0.25 0.25 0.25 0.24 0.25
0.46 0.42 0.38 0.34 0.33 0.33 0.33 0.33 0.32 0.31 0.28 0.27 0.29 0.32 0.33 0.34 0.36 0.39 0.38 0.41 0.39 0.33 0.33 0.33 0.30 0.28 0.27 0.27 0.27 0.26 0.26 0.27 0.26 0.26 0.25 0.24 0.24 0.26 0.27 0.26 0.25 0.24 0.24
0.40 0.33 0.30 0.29 0.29 0.28 0.27 0.26 0.25 0.23 0.24 0.28 0.32 0.32 0.33 0.33 0.34 0.37 0.38 0.40 0.36 0.33 0.34 0.28 0.27 0.26 0.24 0.26 0.26 0.26 0.26 0.24 0.24 0.24 0.24 0.25 0.26 0.27 0.28 0.27 0.24 0.21 0.21
0.33 0.31 0.28 0.26 0.25 0.23 0.22 0.22 0.24 0.26 0.31 0.33 0.32 0.32 0.34 0.35 0.38 0.41 0.41 0.36 0.35 0.34 0.27 0.24 0.25 0.24 0.25 0.24 0.24 0.26 0.24 0.23 0.22 0.22 0.24 0.25 0.27 0.26 0.27 0.27 0.26 0.24 0.26
0.29 0.27 0.25 0.23 0.24 0.24 0.26 0.26 0.27 0.30 0.31 0.32 0.32 0.30 0.32 0.35 0.39 0.39 0.40 0.37 0.31 0.27 0.23 0.22 0.22 0.23 0.23 0.21 0.22 0.22 0.22 0.23 0.23 0.24 0.25 0.26 0.27 0.28 0.28 0.28 0.29 0.29 0.28
0.27 0.27 0.25 0.24 0.25 0.26 0.28 0.28 0.30 0.31 0.31 0.31 0.29 0.31 0.32 0.33 0.36 0.38 0.36 0.29 0.25 0.22 0.22 0.21 0.21 0.21 0.21 0.20 0.19 0.21 0.24 0.24 0.25 0.26 0.27 0.27 0.27 0.27 0.27 0.28 0.28 0.29 0.28
0.25 0.24 0.22 0.21 0.22 0.25 0.28 0.29 0.30 0.32 0.31 0.29 0.30 0.31 0.32 0.33 0.36 0.34 0.29 0.25 0.22 0.21 0.21 0.21 0.20 0.20 0.20 0.19 0.19 0.22 0.24 0.24 0.26 0.26 0.27 0.27 0.26 0.27 0.27 0.27 0.27 0.28 0.27
0.21 0.21 0.20 0.21 0.23 0.26 0.28 0.32 0.31 0.31 0.31 0.30 0.31 0.30 0.30 0.28 0.26 0.25 0.24 0.22 0.23 0.23 0.22 0.22 0.22 0.20 0.18 0.19 0.20 0.22 0.23 0.24 0.27 0.26 0.26 0.24 0.24 0.24 0.24 0.25 0.26 0.27 0.27
0.21 0.20 0.20 0.22 0.25 0.27 0.29 0.31 0.33 0.34 0.32 0.30 0.31 0.30 0.25 0.23 0.23 0.22 0.21 0.25 0.24 0.25 0.25 0.25 0.24 0.23 0.22 0.21 0.21 0.22 0.23 0.24 0.26 0.24 0.23 0.22 0.23 0.23 0.23 0.23 0.24 0.25 0.26

GFSMW_prec_pwat_030.txt.gz
Precipitable_Water
0.74 0.84 0.90 0.94 1.04 1.11 1.13 1.16 1.13 1.08 0.98 0.95 0.91 0.88 0.86 0.90 0.92 0.92 0.90 0.88 0.87 0.86 0.85 0.82 0.79 0.74 0.71 0.67 0.64 0.59 0.53 0.50 0.51 0.45 0.43 0.46 0.49 0.54 0.54 0.57 0.61 0.63 0.68
0.69 0.76 0.83 0.90 0.93 0.96 0.97 0.94 0.89 0.88 0.86 0.85 0.84 0.85 0.86 0.88 0.87 0.85 0.84 0.84 0.84 0.82 0.77 0.73 0.70 0.69 0.64 0.60 0.57 0.55 0.50 0.50 0.50 0.43 0.44 0.37 0.39 0.48 0.52 0.57 0.59 0.59 0.64
0.66 0.71 0.75 0.79 0.82 0.79 0.77 0.76 0.76 0.77 0.78 0.79 0.80 0.81 0.80 0.78 0.75 0.78 0.77 0.76 0.75 0.73 0.70 0.67 0.63 0.60 0.57 0.53 0.51 0.46 0.43 0.42 0.48 0.49 0.41 0.33 0.29 0.33 0.39 0.40 0.46 0.50 0.54
0.68 0.69 0.67 0.66 0.67 0.69 0.73 0.73 0.74 0.76 0.77 0.77 0.74 0.69 0.63 0.62 0.67 0.68 0.69 0.69 0.69 0.67 0.65 0.63 0.60 0.54 0.48 0.45 0.46 0.49 0.48 0.46 0.40 0.43 0.42 0.42 0.38 0.27 0.23 0.34 0.33 0.39 0.39
0.70 0.68 0.68 0.68 0.68 0.69 0.69 0.71 0.71 0.71 0.72 0.72 0.71 0.69 0.67 0.68 0.68 0.67 0.64 0.64 0.64 0.62 0.60 0.57 0.47 0.44 0.45 0.47 0.47 0.45 0.44 0.42 0.41 0.40 0.39 0.37 0.37 0.38 0.31 0.22 0.27 0.31 0.33
0.70 0.66 0.64 0.64 0.64 0.68 0.69 0.70 0.72 0.73 0.75 0.75 0.74 0.70 0.66 0.65 0.64 0.66 0.64 0.62 0.60 0.58 0.55 0.45 0.41 0.40 0.39 0.40 0.42 0.44 0.44 0.42 0.43 0.43 0.41 0.37 0.35 0.34 0.34 0.29 0.28 0.29 0.31
0.68 0.64 0.68 0.68 0.69 0.69 0.72 0.74 0.74 0.73 0.75 0.72 0.70 0.68 0.66 0.65 0.64 0.62 0.59 0.56 0.53 0.45 0.41 0.40 0.39 0.40 0.41 0.42 0.44 0.44 0.42 0.43 0.42 0.43 0.43 0.45 0.43 0.43 0.41 0.38 0.32 0.31 0.35
0.72 0.73 0.73 0.72 0.73 0.74 0.74 0.75 0.73 0.68 0.68 0.68 0.66 0.65 0.64 0.62 0.61 0.59 0.56 0.52 0.44 0.41 0.42 0.43 0.43 0.41 0.41 0.42 0.43 0.43 0.43 0.44 0.42 0.42 0.43 0.44 0.46 0.47 0.46 0.42 0.38 0.33 0.35
0.71 0.70 0.71 0.74 0.75 0.76 0.74 0.72 0.69 0.66 0.65 0.65 0.63 0.60 0.61 0.60 0.59 0.52 0.46 0.42 0.41 0.40 0.39 0.37 0.37 0.37 0.38 0.40 0.41 0.39 0.38 0.39 0.38 0.38 0.38 0.38 0.39 0.40 0.40 0.40 0.43 0.36 0.29
0.66 0.68 0.72 0.74 0.75 0.74 0.72 0.70 0.67 0.64 0.62 0.62 0.62 0.60 0.58 0.55 0.51 0.47 0.40 0.37 0.37 0.37 0.34 0.35 0.35 0.35 0.35 0.35 0.34 0.33 0.34 0.33 0.34 0.36 0.37 0.35 0.32 0.31 0.30 0.31 0.36 0.40 0.36
0.68 0.71 0.72 0.72 0.72 0.70 0.68 0.65 0.63 0.60 0.60 0.59 0.56 0.52 0.49 0.45 0.42 0.42 0.41 0.38 0.39 0.39 0.35 0.36 0.33 0.31 0.32 0.33 0.32 0.31 0.31 0.30 0.28 0.26 0.26 0.25 0.26 0.25 0.24 0.22 0.21 0.24 0.28
0.69 0.70 0.70 0.70 0.67 0.65 0.62 0.60 0.58 0.55 0.52 0.50 0.48 0.44 0.44 0.44 0.40 0.39 0.40 0.40 0.41 0.45 0.43 0.39 0.33 0.31 0.30 0.29 0.28 0.27 0.26 0.24 0.24 0.25 0.25 0.25 0.26 0.25 0.24 0.21 0.19 0.19 0.21
0.67 0.68 0.68 0.65 0.62 0.58 0.54 0.51 0.51 0.49 0.47 0.43 0.41 0.40 0.41 0.43 0.43 0.42 0.42 0.45 0.45 0.50 0.48 0.40 0.34 0.30 0.30 0.29 0.26 0.25 0.23 0.23 0.24 0.24 0.24 0.24 0.23 0.21 0.21 0.21 0.21 0.21 0.21
0.64 0.63 0.61 0.57 0.56 0.53 0.49 0.48 0.46 0.44 0.40 0.39 0.41 0.41 0.41 0.43 0.46 0.49 0.48 0.46 0.49 0.49 0.45 0.38 0.35 0.32 0.31 0.28 0.25 0.25 0.24 0.24 0.25 0.25 0.24 0.23 0.22 0.21 0.22 0.24 0.24 0.24 0.23
0.60 0.60 0.58 0.55 0.53 0.49 0.46 0.42 0.38 0.36 0.37 0.37 0.38 0.40 0.42 0.42 0.39 0.40 0.43 0.46 0.50 0.47 0.47 0.36 0.33 0.32 0.30 0.29 0.27 0.26 0.25 0.25 0.24 0.24 0.24 0.23 0.24 0.23 0.24 0.26 0.25 0.26 0.24
0.57 0.54 0.51 0.49 0.47 0.44 0.41 0.38 0.36 0.38 0.38 0.37 0.37 0.38 0.37 0.33 0.32 0.32 0.34 0.36 0.43 0.48 0.38 0.34 0.33 0.31 0.31 0.31 0.30 0.27 0.26 0.24 0.24 0.23 0.24 0.25 0.25 0.24 0.24 0.24 0.25 0.25 0.24
0.53 0.50 0.47 0.46 0.42 0.38 0.37 0.35 0.35 0.34 0.32 0.32 0.31 0.29 0.29 0.30 0.33 0.32 0.32 0.32 0.37 0.38 0.34 0.36 0.35 0.32 0.33 0.33 0.29 0.27 0.26 0.25 0.24 0.24 0.25 0.25 0.25 0.24 0.23 0.24 0.25 0.26 0.26
0.50 0.47 0.42 0.37 0.34 0.32 0.32 0.32 0.30 0.27 0.25 0.25 0.26 0.28 0.31 0.32 0.32 0.30 0.33 0.37 0.37 0.37 0.39 0.36 0.34 0.33 0.30 0.27 0.26 0.26 0.26 0.24 0.24 0.25 0.24 0.23 0.22 0.24 0.25 0.26 0.27 0.27 0.27
0.48 0.40 0.35 0.32 0.31 0.30 0.30 0.26 0.23 0.22 0.23 0.24 0.27 0.30 0.32 0.32 0.31 0.29 0.32 0.36 0.39 0.40 0.36 0.36 0.32 0.26 0.24 0.25 0.25 0.25 0.22 0.21 0.22 0.23 0.23 0.23 0.24 0.26 0.27 0.26 0.24 0.25 0.24
0.40 0.35 0.33 0.31 0.29 0.27 0.23 0.21 0.21 0.24 0.26 0.29 0.30 0.33 0.34 0.31 0.31 0.34 0.36 0.39 0.38 0.36 0.36 0.32 0.26 0.24 0.22 0.23 0.23 0.22 0.20 0.19 0.21 0.23 0.24 0.26 0.26 0.27 0.27 0.26 0.25 0.22 0.22
0.37 0.34 0.31 0.28 0.27 0.25 0.25 0.24 0.24 0.26 0.28 0.30 0.32 0.32 0.30 0.31 0.34 0.36 0.39 0.38 0.36 0.34 0.29 0.25 0.24 0.23 0.22 0.21 0.21 0.19 0.18 0.21 0.22 0.22 0.24 0.26 0.27 0.28 0.27 0.27 0.26 0.26 0.26
0.33 0.32 0.28 0.26 0.26 0.26 0.24 0.22 0.23 0.26 0.29 0.31 0.30 0.30 0.29 0.31 0.34 0.36 0.36 0.35 0.31 0.26 0.23 0.22 0.21 0.22 0.22 0.20 0.19 0.19 0.20 0.22 0.22 0.23 0.25 0.27 0.27 0.27 0.27 0.27 0.27 0.27 0.27
0.30 0.29 0.25 0.23 0.23 0.24 0.25 0.23 0.26 0.29 0.30 0.30 0.30 0.30 0.30 0.32 0.34 0.33 0.31 0.28 0.26 0.23 0.21 0.20 0.19 0.20 0.21 0.20 0.19 0.20 0.20 0.23 0.24 0.26 0.27 0.26 0.26 0.27 0.27 0.27 0.27 0.27 0.26
0.27 0.23 0.22 0.20 0.21 0.24 0.26 0.27 0.29 0.30 0.31 0.30 0.31 0.30 0.28 0.29 0.31 0.27 0.24 0.22 0.22 0.20 0.20 0.19 0.19 0.20 0.20 0.19 0.19 0.21 0.20 0.23 0.25 0.25 0.26 0.25 0.25 0.26 0.26 0.26 0.26 0.26 0.26
0.23 0.22 0.21 0.21 0.21 0.24 0.26 0.28 0.29 0.30 0.30 0.31 0.31 0.29 0.29 0.28 0.25 0.24 0.22 0.22 0.22 0.22 0.21 0.21 0.21 0.19 0.18 0.19 0.21 0.21 0.20 0.21 0.23 0.23 0.24 0.23 0.23 0.23 0.23 0.23 0.25 0.26 0.26
0.22 0.21 0.21 0.21 0.23 0.25 0.24 0.27 0.31 0.31 0.31 0.29 0.29 0.29 0.27 0.25 0.23 0.21 0.21 0.24 0.24 0.24 0.25 0.25 0.23 0.22 0.22 0.21 0.21 0.20 0.20 0.19 0.22 0.21 0.21 0.21 0.22 0.21 0.20 0.20 0.20 0.21 0.21

GFSMW_prec_pwat_033.txt.gz
Precipitable_Water
0.78 0.87 0.92 1.01 1.08 1.18 1.26 1.28 1.24 1.22 1.15 1.03 0.99 0.93 0.88 0.88 0.89 0.89 0.89 0.87 0.86 0.85 0.82 0.78 0.74 0.72 0.67 0.65 0.63 0.60 0.54 0.51 0.52 0.43 0.38 0.40 0.46 0.43 0.43 0.45 0.52 0.53 0.56
0.75 0.83 0.89 0.98 1.06 1.06 0.98 0.96 0.94 0.92 0.89 0.85 0.83 0.83 0.82 0.83 0.84 0.84 0.81 0.81 0.79 0.77 0.73 0.70 0.68 0.67 0.63 0.58 0.56 0.54 0.48 0.46 0.47 0.37 0.35 0.28 0.29 0.36 0.34 0.35 0.37 0.38 0.44
0.73 0.80 0.84 0.88 0.88 0.82 0.78 0.77 0.75 0.74 0.75 0.76 0.78 0.79 0.79 0.75 0.70 0.69 0.69 0.70 0.71 0.68 0.65 0.64 0.63 0.61 0.58 0.48 0.45 0.44 0.43 0.37 0.39 0.39 0.33 0.25 0.22 0.27 0.30 0.29 0.33 0.32 0.31
0.77 0.80 0.75 0.73 0.73 0.74 0.76 0.75 0.74 0.73 0.74 0.74 0.70 0.66 0.63 0.62 0.68 0.67 0.68 0.67 0.68 0.66 0.65 0.63 0.59 0.53 0.45 0.40 0.42 0.43 0.40 0.38 0.34 0.36 0.38 0.39 0.37 0.28 0.24 0.33 0.32 0.33 0.31
0.76 0.74 0.75 0.74 0.72 0.72 0.70 0.71 0.73 0.74 0.75 0.73 0.71 0.69 0.68 0.70 0.69 0.67 0.67 0.68 0.66 0.63 0.61 0.56 0.49 0.43 0.40 0.40 0.39 0.39 0.39 0.40 0.38 0.37 0.38 0.37 0.36 0.36 0.31 0.25 0.29 0.33 0.34
0.80 0.78 0.77 0.73 0.71 0.74 0.75 0.77 0.75 0.74 0.75 0.74 0.73 0.69 0.67 0.66 0.64 0.65 0.63 0.61 0.56 0.51 0.48 0.44 0.42 0.41 0.40 0.38 0.38 0.39 0.39 0.38 0.39 0.40 0.39 0.37 0.35 0.33 0.34 0.30 0.28 0.30 0.31
0.75 0.76 0.77 0.75 0.79 0.79 0.80 0.80 0.78 0.75 0.76 0.73 0.71 0.68 0.66 0.66 0.63 0.60 0.57 0.50 0.44 0.40 0.39 0.40 0.40 0.37 0.37 0.37 0.38 0.38 0.38 0.37 0.36 0.36 0.35 0.38 0.38 0.40 0.40 0.38 0.33 0.33 0.36
0.77 0.80 0.84 0.81 0.79 0.78 0.78 0.78 0.77 0.73 0.72 0.70 0.66 0.66 0.64 0.61 0.58 0.53 0.47 0.41 0.39 0.39 0.42 0.41 0.40 0.38 0.37 0.37 0.37 0.36 0.34 0.35 0.33 0.33 0.34 0.33 0.35 0.37 0.38 0.36 0.33 0.28 0.32
0.74 0.71 0.70 0.73 0.76 0.77 0.76 0.74 0.72 0.70 0.69 0.64 0.61 0.60 0.59 0.54 0.49 0.48 0.44 0.40 0.41 0.41 0.41 0.41 0.41 0.41 0.40 0.39 0.38 0.36 0.34 0.35 0.33 0.32 0.32 0.33 0.34 0.32 0.32 0.32 0.31 0.27 0.22
0.64 0.65 0.69 0.73 0.76 0.76 0.74 0.73 0.71 0.66 0.62 0.60 0.57 0.52 0.48 0.46 0.44 0.44 0.43 0.44 0.45 0.43 0.42 0.44 0.44 0.43 0.43 0.41 0.40 0.37 0.35 0.35 0.33 0.32 0.29 0.26 0.26 0.26 0.26 0.25 0.25 0.24 0.23
0.64 0.68 0.71 0.72 0.73 0.72 0.70 0.69 0.64 0.60 0.57 0.53 0.49 0.45 0.42 0.42 0.42 0.44 0.45 0.45 0.47 0.47 0.45 0.45 0.45 0.43 0.43 0.40 0.37 0.33 0.32 0.29 0.26 0.26 0.25 0.24 0.25 0.25 0.24 0.24 0.23 0.21 0.21
0.65 0.67 0.69 0.71 0.70 0.68 0.63 0.60 0.60 0.55 0.53 0.50 0.44 0.42 0.43 0.44 0.44 0.45 0.46 0.46 0.43 0.46 0.46 0.44 0.45 0.39 0.39 0.37 0.32 0.30 0.26 0.25 0.24 0.24 0.23 0.22 0.23 0.22 0.22 0.22 0.21 0.21 0.21
0.64 0.67 0.68 0.65 0.61 0.60 0.60 0.57 0.54 0.51 0.48 0.44 0.42 0.39 0.39 0.40 0.41 0.41 0.37 0.35 0.34 0.35 0.39 0.39 0.43 0.43 0.37 0.34 0.32 0.29 0.27 0.27 0.26 0.26 0.24 0.23 0.22 0.20 0.20 0.20 0.21 0.23 0.24
0.63 0.62 0.60 0.59 0.62 0.62 0.55 0.51 0.46 0.44 0.42 0.40 0.38 0.38 0.38 0.37 0.33 0.31 0.30 0.31 0.33 0.34 0.36 0.41 0.42 0.42 0.36 0.34 0.31 0.29 0.28 0.27 0.27 0.26 0.25 0.23 0.22 0.20 0.21 0.21 0.22 0.24 0.24
0.58 0.58 0.58 0.60 0.59 0.55 0.51 0.45 0.41 0.39 0.38 0.36 0.35 0.33 0.32 0.28 0.28 0.30 0.33 0.35 0.34 0.34 0.38 0.41 0.40 0.35 0.35 0.35 0.32 0.31 0.30 0.26 0.24 0.24 0.24 0.23 0.23 0.25 0.25 0.23 0.23 0.22 0.22
0.55 0.56 0.59 0.54 0.49 0.47 0.44 0.39 0.36 0.33 0.31 0.31 0.28 0.28 0.27 0.29 0.31 0.31 0.31 0.32 0.34 0.38 0.41 0.38 0.33 0.34 0.35 0.34 0.34 0.31 0.25 0.24 0.24 0.23 0.23 0.23 0.25 0.25 0.25 0.24 0.23 0.24 0.23
0.55 0.56 0.52 0.49 0.46 0.41 0.36 0.33 0.31 0.30 0.27 0.25 0.27 0.29 0.31 0.29 0.29 0.31 0.29 0.28 0.32 0.37 0.37 0.37 0.38 0.35 0.34 0.33 0.29 0.27 0.25 0.25 0.24 0.22 0.21 0.21 0.23 0.23 0.23 0.24 0.25 0.26 0.26
0.56 0.50 0.48 0.44 0.40 0.36 0.34 0.32 0.29 0.26 0.25 0.26 0.28 0.30 0.29 0.28 0.30 0.29 0.30 0.31 0.32 0.35 0.37 0.37 0.36 0.33 0.31 0.27 0.26 0.24 0.23 0.21 0.19 0.19 0.20 0.22 0.23 0.25 0.26 0.26 0.26 0.26 0.25
0.50 0.47 0.45 0.41 0.37 0.34 0.33 0.30 0.25 0.24 0.26 0.27 0.28 0.28 0.29 0.28 0.28 0.28 0.29 0.33 0.35 0.36 0.35 0.34 0.32 0.28 0.25 0.24 0.23 0.22 0.20 0.17 0.17 0.20 0.23 0.24 0.25 0.27 0.28 0.26 0.25 0.25 0.24
0.48 0.45 0.41 0.37 0.34 0.33 0.30 0.26 0.24 0.23 0.24 0.25 0.27 0.30 0.30 0.29 0.28 0.30 0.31 0.35 0.37 0.35 0.34 0.30 0.27 0.24 0.22 0.22 0.21 0.20 0.18 0.17 0.18 0.20 0.23 0.26 0.27 0.28 0.28 0.26 0.25 0.23 0.24
0.46 0.43 0.38 0.34 0.32 0.30 0.26 0.22 0.22 0.22 0.26 0.29 0.30 0.30 0.30 0.29 0.29 0.31 0.34 0.35 0.36 0.32 0.28 0.24 0.24 0.22 0.22 0.21 0.20 0.19 0.18 0.18 0.18 0.21 0.23 0.26 0.27 0.27 0.27 0.27 0.26 0.25 0.26
0.43 0.39 0.33 0.30 0.28 0.24 0.23 0.22 0.23 0.27 0.29 0.29 0.30 0.30 0.31 0.30 0.30 0.33 0.34 0.32 0.29 0.26 0.24 0.22 0.21 0.21 0.22 0.21 0.20 0.20 0.20 0.20 0.19 0.21 0.24 0.26 0.26 0.27 0.27 0.27 0.27 0.26 0.26
0.38 0.34 0.30 0.25 0.24 0.24 0.25 0.23 0.26 0.28 0.28 0.29 0.29 0.30 0.30 0.29 0.30 0.30 0.28 0.27 0.24 0.22 0.20 0.19 0.19 0.20 0.21 0.20 0.20 0.20 0.20 0.20 0.20 0.22 0.24 0.25 0.25 0.26 0.26 0.26 0.26 0.26 0.25
0.32 0.30 0.25 0.22 0.22 0.24 0.26 0.28 0.28 0.28 0.28 0.27 0.29 0.30 0.28 0.28 0.29 0.29 0.26 0.23 0.21 0.20 0.19 0.19 0.19 0.20 0.20 0.19 0.19 0.21 0.20 0.19 0.19 0.20 0.22 0.23 0.24 0.24 0.24 0.24 0.25 0.25 0.25
0.29 0.25 0.24 0.23 0.23 0.26 0.26 0.27 0.27 0.29 0.28 0.29 0.29 0.29 0.28 0.27 0.28 0.27 0.25 0.23 0.23 0.22 0.20 0.20 0.21 0.20 0.18 0.19 0.21 0.20 0.18 0.18 0.18 0.17 0.19 0.21 0.22 0.21 0.19 0.19 0.21 0.22 0.20
0.25 0.24 0.24 0.23 0.25 0.25 0.25 0.26 0.28 0.29 0.28 0.27 0.29 0.29 0.28 0.27 0.27 0.23 0.23 0.25 0.24 0.24 0.24 0.24 0.23 0.22 0.22 0.21 0.21 0.20 0.18 0.18 0.17 0.15 0.15 0.17 0.20 0.18 0.18 0.17 0.17 0.18 0.19

GFSMW_prec_pwat_039.txt.gz
Precipitable_Water
0.81 0.91 0.97 1.04 1.10 1.19 1.23 1.29 1.33 1.36 1.25 1.10 0.99 0.90 0.82 0.82 0.79 0.77 0.74 0.71 0.70 0.70 0.69 0.67 0.64 0.61 0.54 0.49 0.47 0.42 0.39 0.37 0.39 0.35 0.31 0.32 0.39 0.39 0.34 0.35 0.34 0.32 0.32
0.81 0.90 0.99 1.03 1.11 1.17 1.24 1.25 1.17 0.98 0.90 0.82 0.76 0.73 0.69 0.68 0.67 0.68 0.70 0.69 0.69 0.69 0.67 0.62 0.55 0.49 0.42 0.39 0.37 0.35 0.31 0.33 0.36 0.28 0.26 0.21 0.24 0.33 0.34 0.31 0.31 0.31 0.32
0.73 0.79 0.88 0.90 0.90 0.90 0.90 0.87 0.81 0.78 0.76 0.76 0.74 0.74 0.74 0.73 0.69 0.68 0.69 0.71 0.72 0.69 0.62 0.55 0.47 0.41 0.39 0.34 0.33 0.33 0.32 0.27 0.33 0.34 0.28 0.21 0.19 0.27 0.30 0.29 0.30 0.29 0.30
0.79 0.79 0.75 0.73 0.75 0.78 0.78 0.77 0.77 0.79 0.82 0.84 0.81 0.79 0.75 0.70 0.72 0.72 0.72 0.72 0.68 0.60 0.54 0.48 0.43 0.41 0.40 0.38 0.36 0.37 0.35 0.33 0.30 0.33 0.36 0.36 0.36 0.27 0.24 0.33 0.33 0.32 0.31
0.75 0.69 0.70 0.73 0.76 0.77 0.78 0.84 0.86 0.87 0.88 0.90 0.88 0.83 0.77 0.75 0.74 0.72 0.69 0.62 0.57 0.53 0.50 0.47 0.45 0.44 0.43 0.42 0.41 0.40 0.38 0.40 0.37 0.36 0.35 0.35 0.34 0.35 0.29 0.24 0.27 0.31 0.33
0.69 0.72 0.77 0.76 0.76 0.82 0.88 0.89 0.89 0.88 0.89 0.87 0.85 0.80 0.74 0.71 0.67 0.63 0.56 0.52 0.48 0.45 0.45 0.45 0.45 0.46 0.46 0.44 0.45 0.44 0.41 0.40 0.39 0.37 0.35 0.31 0.29 0.28 0.29 0.26 0.26 0.26 0.28
0.70 0.71 0.70 0.74 0.81 0.85 0.87 0.87 0.85 0.83 0.83 0.82 0.80 0.76 0.71 0.67 0.59 0.53 0.48 0.45 0.44 0.43 0.43 0.45 0.44 0.44 0.46 0.45 0.44 0.43 0.42 0.44 0.41 0.39 0.36 0.36 0.34 0.36 0.35 0.31 0.27 0.25 0.24
0.68 0.71 0.75 0.78 0.80 0.80 0.80 0.81 0.82 0.80 0.80 0.78 0.73 0.71 0.66 0.58 0.54 0.50 0.48 0.47 0.45 0.44 0.46 0.45 0.43 0.44 0.43 0.42 0.41 0.42 0.43 0.42 0.40 0.40 0.38 0.36 0.36 0.37 0.34 0.29 0.26 0.21 0.19
0.67 0.72 0.76 0.76 0.76 0.78 0.79 0.79 0.78 0.76 0.76 0.71 0.68 0.67 0.63 0.56 0.53 0.53 0.50 0.48 0.47 0.47 0.46 0.44 0.39 0.37 0.38 0.40 0.42 0.43 0.40 0.41 0.40 0.38 0.37 0.35 0.34 0.34 0.30 0.28 0.27 0.23 0.16
0.66 0.71 0.73 0.73 0.74 0.74 0.75 0.75 0.76 0.72 0.69 0.69 0.68 0.61 0.55 0.53 0.51 0.50 0.48 0.45 0.42 0.36 0.34 0.32 0.32 0.34 0.39 0.42 0.43 0.39 0.41 0.40 0.38 0.34 0.31 0.29 0.29 0.30 0.29 0.27 0.26 0.26 0.22
0.63 0.64 0.66 0.69 0.71 0.70 0.70 0.71 0.68 0.66 0.68 0.69 0.61 0.55 0.52 0.49 0.48 0.43 0.37 0.33 0.31 0.30 0.29 0.30 0.32 0.35 0.39 0.42 0.38 0.37 0.38 0.36 0.33 0.31 0.30 0.30 0.30 0.26 0.26 0.26 0.25 0.23 0.21
0.62 0.64 0.64 0.66 0.67 0.66 0.68 0.66 0.67 0.69 0.69 0.60 0.53 0.49 0.46 0.43 0.37 0.31 0.30 0.31 0.30 0.31 0.32 0.33 0.34 0.38 0.42 0.42 0.37 0.41 0.37 0.33 0.32 0.31 0.30 0.30 0.26 0.25 0.25 0.24 0.23 0.21 0.21
0.61 0.63 0.64 0.64 0.66 0.66 0.66 0.64 0.65 0.64 0.56 0.51 0.46 0.43 0.39 0.33 0.30 0.31 0.32 0.32 0.30 0.30 0.30 0.33 0.35 0.37 0.38 0.39 0.39 0.35 0.32 0.32 0.30 0.31 0.29 0.25 0.24 0.22 0.23 0.23 0.22 0.21 0.23
0.60 0.61 0.63 0.64 0.65 0.65 0.61 0.64 0.62 0.52 0.47 0.44 0.40 0.35 0.32 0.32 0.33 0.34 0.32 0.31 0.31 0.29 0.30 0.34 0.37 0.37 0.37 0.36 0.34 0.32 0.31 0.31 0.30 0.28 0.25 0.24 0.23 0.22 0.21 0.22 0.22 0.25 0.24
0.57 0.60 0.61 0.61 0.61 0.59 0.66 0.55 0.48 0.45 0.43 0.38 0.34 0.33 0.35 0.35 0.34 0.32 0.31 0.30 0.30 0.31 0.31 0.33 0.37 0.35 0.32 0.33 0.33 0.32 0.31 0.30 0.24 0.23 0.22 0.21 0.21 0.20 0.21 0.21 0.23 0.24 0.24
0.55 0.58 0.58 0.58 0.57 0.55 0.50 0.47 0.45 0.43 0.39 0.34 0.32 0.35 0.35 0.34 0.31 0.31 0.30 0.30 0.31 0.29 0.31 0.32 0.32 0.32 0.33 0.35 0.34 0.31 0.26 0.22 0.20 0.18 0.17 0.17 0.18 0.19 0.21 0.24 0.26 0.26 0.24
0.54 0.55 0.55 0.54 0.52 0.49 0.49 0.45 0.43 0.40 0.35 0.31 0.32 0.33 0.32 0.30 0.30 0.30 0.29 0.29 0.30 0.31 0.30 0.33 0.35 0.34 0.34 0.33 0.29 0.24 0.22 0.20 0.18 0.16 0.16 0.17 0.19 0.20 0.23 0.25 0.27 0.28 0.28
0.53 0.55 0.53 0.51 0.49 0.49 0.48 0.46 0.41 0.35 0.31 0.30 0.30 0.30 0.30 0.29 0.29 0.28 0.28 0.30 0.30 0.31 0.31 0.32 0.33 0.32 0.31 0.26 0.23 0.21 0.20 0.19 0.17 0.17 0.18 0.18 0.19 0.21 0.24 0.27 0.26 0.26 0.26
0.55 0.55 0.52 0.50 0.51 0.49 0.48 0.43 0.36 0.31 0.29 0.29 0.29 0.29 0.29 0.28 0.27 0.27 0.28 0.29 0.29 0.29 0.31 0.33 0.31 0.29 0.25 0.23 0.21 0.21 0.20 0.18 0.17 0.18 0.19 0.19 0.20 0.22 0.25 0.25 0.25 0.25 0.25
0.55 0.51 0.49 0.50 0.49 0.49 0.45 0.37 0.31 0.29 0.29 0.29 0.29 0.29 0.28 0.27 0.26 0.27 0.28 0.29 0.30 0.30 0.32 0.31 0.30 0.27 0.23 0.22 0.21 0.21 0.20 0.18 0.17 0.18 0.19 0.20 0.20 0.22 0.25 0.25 0.25 0.23 0.24
0.50 0.53 0.52 0.50 0.50 0.46 0.38 0.30 0.29 0.29 0.30 0.31 0.29 0.28 0.28 0.27 0.27 0.28 0.29 0.30 0.30 0.30 0.30 0.27 0.26 0.24 0.22 0.21 0.21 0.21 0.20 0.18 0.17 0.17 0.17 0.18 0.20 0.21 0.24 0.25 0.25 0.25 0.26
0.53 0.54 0.50 0.50 0.46 0.38 0.31 0.29 0.30 0.31 0.31 0.29 0.27 0.27 0.27 0.27 0.27 0.27 0.28 0.29 0.28 0.28 0.27 0.26 0.23 0.23 0.22 0.22 0.21 0.21 0.21 0.20 0.17 0.17 0.17 0.17 0.18 0.20 0.22 0.22 0.22 0.24 0.25
0.51 0.51 0.51 0.43 0.36 0.32 0.33 0.31 0.31 0.31 0.28 0.26 0.26 0.27 0.27 0.28 0.28 0.27 0.27 0.27 0.28 0.26 0.24 0.22 0.21 0.21 0.22 0.22 0.21 0.20 0.21 0.19 0.17 0.18 0.17 0.15 0.16 0.18 0.18 0.18 0.19 0.20 0.21
0.53 0.50 0.41 0.34 0.31 0.34 0.34 0.32 0.29 0.28 0.26 0.25 0.26 0.27 0.26 0.27 0.28 0.28 0.28 0.27 0.26 0.24 0.23 0.22 0.21 0.21 0.21 0.21 0.21 0.21 0.21 0.19 0.17 0.16 0.16 0.15 0.14 0.15 0.18 0.18 0.18 0.17 0.16
0.50 0.42 0.33 0.34 0.34 0.33 0.30 0.29 0.27 0.27 0.25 0.26 0.26 0.27 0.26 0.26 0.27 0.28 0.28 0.28 0.28 0.27 0.23 0.23 0.22 0.21 0.20 0.22 0.22 0.21 0.20 0.19 0.17 0.15 0.15 0.14 0.13 0.12 0.14 0.17 0.17 0.15 0.14
0.38 0.37 0.36 0.33 0.31 0.29 0.26 0.26 0.27 0.27 0.26 0.25 0.26 0.26 0.26 0.27 0.27 0.27 0.27 0.30 0.29 0.26 0.25 0.24 0.24 0.25 0.24 0.24 0.23 0.22 0.21 0.19 0.17 0.14 0.13 0.13 0.13 0.13 0.12 0.13 0.15 0.16 0.15

GFSMW_prec_pwat_042.txt.gz
Precipitable_Water
0.81 0.89 0.96 1.04 1.09 1.16 1.19 1.24 1.25 1.29 1.32 1.24 1.05 0.94 0.81 0.80 0.76 0.75 0.74 0.73 0.73 0.74 0.74 0.69 0.65 0.60 0.56 0.52 0.46 0.40 0.35 0.34 0.40 0.36 0.29 0.29 0.33 0.48 0.46 0.40 0.40 0.37 0.37
0.80 0.89 0.98 1.05 1.09 1.12 1.20 1.22 1.24 1.15 1.01 0.93 0.80 0.79 0.76 0.77 0.78 0.79 0.79 0.77 0.76 0.74 0.69 0.66 0.60 0.56 0.47 0.43 0.41 0.39 0.36 0.34 0.37 0.37 0.31 0.22 0.25 0.29 0.43 0.40 0.38 0.37 0.38
0.77 0.86 0.92 1.00 1.07 1.08 1.10 1.06 0.98 0.89 0.83 0.83 0.83 0.84 0.85 0.84 0.78 0.78 0.77 0.77 0.75 0.70 0.65 0.60 0.51 0.46 0.43 0.41 0.43 0.42 0.40 0.35 0.36 0.40 0.36 0.27 0.23 0.28 0.34 0.37 0.37 0.37 0.35
0.75 0.79 0.81 0.87 0.90 0.92 0.92 0.85 0.84 0.85 0.88 0.90 0.87 0.85 0.83 0.79 0.81 0.78 0.78 0.77 0.71 0.64 0.57 0.50 0.47 0.46 0.47 0.46 0.45 0.43 0.43 0.41 0.36 0.37 0.39 0.40 0.38 0.30 0.26 0.34 0.34 0.33 0.33
0.71 0.71 0.72 0.74 0.76 0.78 0.80 0.83 0.86 0.87 0.89 0.90 0.90 0.89 0.84 0.80 0.78 0.78 0.76 0.69 0.63 0.56 0.50 0.49 0.49 0.48 0.49 0.49 0.49 0.47 0.45 0.44 0.41 0.40 0.38 0.38 0.36 0.35 0.33 0.30 0.28 0.30 0.33
0.70 0.69 0.72 0.75 0.74 0.78 0.84 0.91 0.89 0.87 0.89 0.90 0.89 0.86 0.81 0.75 0.73 0.72 0.65 0.60 0.54 0.52 0.53 0.54 0.51 0.51 0.51 0.49 0.48 0.48 0.46 0.45 0.44 0.44 0.44 0.39 0.35 0.31 0.32 0.31 0.31 0.28 0.30
0.67 0.67 0.71 0.71 0.74 0.81 0.86 0.88 0.86 0.84 0.88 0.88 0.85 0.81 0.76 0.72 0.68 0.65 0.55 0.50 0.49 0.50 0.51 0.53 0.52 0.48 0.45 0.45 0.44 0.45 0.45 0.45 0.45 0.43 0.39 0.41 0.40 0.39 0.38 0.35 0.32 0.27 0.27
0.66 0.70 0.71 0.75 0.79 0.81 0.84 0.83 0.84 0.82 0.83 0.80 0.78 0.73 0.71 0.70 0.65 0.57 0.54 0.52 0.54 0.54 0.53 0.52 0.49 0.44 0.42 0.43 0.43 0.45 0.46 0.48 0.44 0.40 0.41 0.40 0.38 0.38 0.37 0.32 0.27 0.23 0.22
0.67 0.69 0.74 0.79 0.80 0.80 0.82 0.83 0.82 0.80 0.77 0.75 0.72 0.71 0.71 0.67 0.58 0.56 0.56 0.55 0.54 0.50 0.43 0.39 0.36 0.36 0.38 0.40 0.42 0.45 0.45 0.44 0.39 0.42 0.40 0.36 0.35 0.33 0.33 0.32 0.30 0.26 0.20
0.65 0.70 0.75 0.79 0.79 0.79 0.81 0.84 0.81 0.77 0.73 0.71 0.68 0.68 0.69 0.60 0.55 0.54 0.52 0.46 0.39 0.35 0.34 0.33 0.33 0.34 0.35 0.38 0.40 0.40 0.39 0.37 0.38 0.38 0.35 0.33 0.33 0.33 0.33 0.29 0.26 0.26 0.24
0.63 0.68 0.74 0.76 0.75 0.76 0.78 0.79 0.75 0.70 0.71 0.68 0.69 0.68 0.58 0.52 0.51 0.45 0.39 0.35 0.35 0.34 0.33 0.33 0.33 0.34 0.36 0.39 0.37 0.39 0.37 0.36 0.38 0.36 0.34 0.33 0.34 0.32 0.29 0.26 0.25 0.24 0.23
0.63 0.67 0.69 0.71 0.71 0.73 0.73 0.72 0.69 0.69 0.72 0.71 0.67 0.55 0.49 0.46 0.41 0.36 0.35 0.36 0.35 0.34 0.33 0.33 0.34 0.36 0.37 0.38 0.37 0.36 0.38 0.35 0.32 0.32 0.32 0.31 0.31 0.27 0.26 0.25 0.24 0.23 0.23
0.59 0.62 0.65 0.66 0.67 0.69 0.69 0.66 0.69 0.71 0.69 0.61 0.50 0.47 0.43 0.38 0.35 0.36 0.36 0.37 0.35 0.33 0.34 0.33 0.34 0.35 0.37 0.36 0.36 0.37 0.35 0.33 0.32 0.31 0.31 0.28 0.25 0.23 0.23 0.23 0.22 0.22 0.22
0.56 0.60 0.63 0.64 0.65 0.65 0.63 0.64 0.71 0.66 0.54 0.49 0.46 0.40 0.37 0.36 0.37 0.37 0.37 0.35 0.35 0.33 0.32 0.32 0.34 0.36 0.37 0.36 0.36 0.33 0.33 0.33 0.32 0.31 0.27 0.25 0.23 0.21 0.20 0.19 0.19 0.20 0.22
0.54 0.57 0.60 0.63 0.63 0.61 0.60 0.66 0.62 0.53 0.49 0.45 0.39 0.36 0.37 0.40 0.39 0.37 0.36 0.35 0.33 0.33 0.32 0.32 0.33 0.33 0.33 0.31 0.34 0.35 0.35 0.31 0.26 0.23 0.22 0.20 0.19 0.18 0.19 0.19 0.20 0.22 0.23
0.52 0.56 0.59 0.59 0.59 0.57 0.58 0.59 0.50 0.48 0.47 0.40 0.35 0.37 0.40 0.39 0.36 0.35 0.34 0.32 0.33 0.33 0.33 0.31 0.31 0.32 0.33 0.34 0.34 0.32 0.27 0.23 0.21 0.19 0.18 0.18 0.18 0.19 0.20 0.21 0.22 0.25 0.24
0.51 0.54 0.56 0.56 0.54 0.54 0.55 0.48 0.48 0.50 0.44 0.37 0.36 0.37 0.37 0.35 0.34 0.33 0.31 0.31 0.32 0.32 0.31 0.31 0.32 0.32 0.34 0.32 0.31 0.24 0.22 0.21 0.20 0.19 0.17 0.17 0.18 0.20 0.21 0.21 0.24 0.28 0.30
0.50 0.53 0.54 0.52 0.51 0.53 0.48 0.55 0.51 0.45 0.39 0.36 0.35 0.37 0.35 0.33 0.33 0.31 0.30 0.31 0.32 0.30 0.31 0.30 0.31 0.32 0.32 0.29 0.26 0.22 0.22 0.21 0.20 0.19 0.19 0.18 0.19 0.20 0.21 0.22 0.24 0.26 0.28
0.53 0.54 0.53 0.52 0.50 0.52 0.55 0.50 0.49 0.42 0.37 0.34 0.36 0.35 0.35 0.33 0.31 0.30 0.29 0.30 0.30 0.30 0.30 0.31 0.31 0.31 0.30 0.27 0.24 0.21 0.21 0.21 0.20 0.20 0.19 0.19 0.19 0.20 0.21 0.21 0.23 0.25 0.25
0.54 0.52 0.51 0.49 0.48 0.52 0.56 0.49 0.42 0.35 0.33 0.37 0.35 0.35 0.34 0.31 0.29 0.29 0.28 0.29 0.31 0.30 0.30 0.30 0.32 0.30 0.28 0.26 0.22 0.21 0.21 0.20 0.20 0.19 0.19 0.20 0.19 0.18 0.21 0.22 0.23 0.23 0.24
0.51 0.50 0.49 0.52 0.53 0.57 0.51 0.40 0.33 0.34 0.40 0.36 0.35 0.33 0.32 0.30 0.30 0.29 0.29 0.29 0.30 0.30 0.29 0.29 0.30 0.29 0.27 0.25 0.22 0.21 0.20 0.20 0.19 0.18 0.18 0.19 0.18 0.17 0.20 0.20 0.21 0.20 0.21
0.51 0.52 0.54 0.57 0.57 0.50 0.41 0.33 0.36 0.38 0.36 0.34 0.31 0.29 0.30 0.30 0.29 0.29 0.29 0.28 0.28 0.27 0.28 0.28 0.27 0.28 0.27 0.25 0.23 0.22 0.20 0.21 0.19 0.17 0.18 0.19 0.16 0.15 0.18 0.19 0.18 0.18 0.21
0.55 0.58 0.56 0.53 0.48 0.41 0.38 0.40 0.36 0.35 0.31 0.29 0.28 0.29 0.30 0.29 0.29 0.28 0.27 0.26 0.27 0.27 0.27 0.26 0.24 0.24 0.26 0.25 0.25 0.23 0.20 0.22 0.19 0.19 0.17 0.16 0.15 0.15 0.16 0.18 0.18 0.19 0.18
0.58 0.63 0.56 0.47 0.38 0.43 0.39 0.36 0.34 0.31 0.28 0.27 0.28 0.28 0.28 0.28 0.27 0.27 0.27 0.26 0.26 0.27 0.26 0.24 0.23 0.23 0.24 0.24 0.25 0.24 0.23 0.23 0.21 0.20 0.17 0.17 0.16 0.16 0.16 0.17 0.18 0.19 0.18
0.60 0.52 0.42 0.40 0.41 0.38 0.35 0.33 0.31 0.30 0.27 0.27 0.27 0.27 0.28 0.27 0.27 0.27 0.27 0.27 0.28 0.29 0.26 0.24 0.24 0.23 0.22 0.25 0.25 0.23 0.22 0.22 0.21 0.18 0.18 0.17 0.16 0.15 0.15 0.16 0.16 0.17 0.17
0.50 0.48 0.45 0.39 0.35 0.34 0.31 0.30 0.30 0.29 0.28 0.26 0.27 0.28 0.27 0.27 0.27 0.27 0.26 0.30 0.30 0.29 0.29 0.26 0.23 0.23 0.25 0.25 0.24 0.24 0.23 0.22 0.20 0.18 0.17 0.16 0.16 0.15 0.15 0.15 0.15 0.16 0.15